| time (UTC) | temp F | wind direction | speed knots | gust knots | rain 1hr in | rain 24hr in | rain mn in | humidity % | barometer mb |
| 20260905234604 | 84 | 0 | 0.0 | 0.0 | 0.00 | 0.00 | 0.00 | 82 | 1012.3 |
| 20260905233104 | 84 | 0 | 0.0 | 0.0 | 0.00 | 0.00 | 0.00 | 81 | 1012.2 |
| 20260905231618 | 85 | 0 | 0.0 | 0.0 | 0.00 | 0.00 | 0.00 | 77 | 1012.4 |
| 20260905230108 | 86 | 0 | 0.0 | 0.0 | 0.00 | 0.00 | 0.00 | 76 | 1012.6 |
| 20260905224600 | 87 | 0 | 0.0 | 0.9 | 0.00 | 0.00 | 0.00 | 75 | 1012.3 |
| 20260905223105 | 89 | 0 | 0.0 | 0.9 | 0.00 | 0.00 | 0.00 | 70 | 1012.0 |
| 20260905221619 | 91 | 0 | 0.0 | 0.9 | 0.00 | 0.00 | 0.00 | 63 | 1012.2 |
| 20260905220104 | 93 | 0 | 0.0 | 1.7 | 0.00 | 0.00 | 0.00 | 58 | 1012.2 |
| 20260905214609 | 94 | 0 | 0.0 | 0.9 | 0.00 | 0.00 | 0.00 | 57 | 1012.1 |
| 20260905213105 | 93 | 0 | 0.0 | 2.6 | 0.00 | 0.00 | 0.00 | 57 | 1012.1 |
| 20260905211605 | 93 | 0 | 0.0 | 6.1 | 0.00 | 0.00 | 0.00 | 55 | 1012.2 |
| 20260905210111 | 92 | 311 | 0.0 | 2.6 | 0.00 | 0.00 | 0.00 | 57 | 1012.5 |
| 20260905204601 | 93 | 0 | 0.0 | 1.7 | 0.00 | 0.00 | 0.00 | 56 | 1012.7 |
| 20260905203102 | 91 | 0 | 0.0 | 4.3 | 0.00 | 0.00 | 0.00 | 59 | 1012.8 |
| 20260905201605 | 89 | 355 | 1.7 | 4.3 | 0.00 | 0.00 | 0.00 | 61 | 1012.8 |
| 20260905200129 | 89 | 339 | 2.6 | 7.0 | 0.00 | 0.00 | 0.00 | 58 | 1013.0 |
| 20260905194603 | 89 | 10 | 1.7 | 4.3 | 0.00 | 0.00 | 0.00 | 57 | 1013.2 |
| 20260905193105 | 88 | 0 | 1.7 | 7.8 | 0.00 | 0.00 | 0.00 | 62 | 1013.4 |
| 20260905191612 | 88 | 360 | 2.6 | 6.1 | 0.00 | 0.00 | 0.00 | 57 | 1013.5 |
| 20260905190105 | 88 | 329 | 2.6 | 7.8 | 0.00 | 0.00 | 0.00 | 59 | 1013.8 |
| 20260905184613 | 88 | 27 | 0.9 | 8.7 | 0.00 | 0.00 | 0.00 | 64 | 1013.9 |
| 20260905183114 | 87 | 334 | 3.5 | 9.6 | 0.00 | 0.00 | 0.00 | 60 | 1014.1 |
| 20260905181620 | 86 | 328 | 1.7 | 8.7 | 0.00 | 0.00 | 0.00 | 62 | 1014.1 |
| 20260905180116 | 85 | 348 | 2.6 | 7.8 | 0.00 | 0.00 | 0.00 | 61 | 1014.1 |
| 20260905174605 | 84 | 322 | 2.6 | 7.0 | 0.00 | 0.00 | 0.00 | 63 | 1014.4 |
| 20260905173132 | 84 | 360 | 3.5 | 7.0 | 0.00 | 0.00 | 0.00 | 62 | 1014.6 |
| 20260905171606 | 84 | 345 | 2.6 | 7.8 | 0.00 | 0.00 | 0.00 | 65 | 1015.1 |
| 20260905170105 | 84 | 26 | 2.6 | 7.0 | 0.00 | 0.00 | 0.00 | 63 | 1015.1 |
| 20260905164614 | 83 | 355 | 0.9 | 8.7 | 0.00 | 0.00 | 0.00 | 65 | 1015.2 |
| 20260905163109 | 82 | 5 | 1.7 | 6.1 | 0.00 | 0.00 | 0.00 | 65 | 1015.4 |
| 20260905161605 | 82 | 0 | 0.9 | 7.8 | 0.00 | 0.00 | 0.00 | 64 | 1015.6 |
| 20260905160107 | 80 | 198 | 3.5 | 7.0 | 0.00 | 0.00 | 0.00 | 67 | 1015.5 |
| 20260905154606 | 80 | 246 | 4.3 | 7.8 | 0.00 | 0.00 | 0.00 | 64 | 1015.4 |
| 20260905153104 | 80 | 305 | 4.3 | 10.4 | 0.00 | 0.00 | 0.00 | 67 | 1015.4 |
| 20260905151606 | 79 | 322 | 3.5 | 7.8 | 0.00 | 0.00 | 0.00 | 68 | 1015.2 |
| 20260905150108 | 79 | 351 | 4.3 | 7.8 | 0.00 | 0.00 | 0.00 | 70 | 1015.2 |
| 20260905144609 | 79 | 262 | 4.3 | 7.8 | 0.00 | 0.00 | 0.00 | 66 | 1015.2 |
| 20260905143104 | 79 | 288 | 3.5 | 7.0 | 0.00 | 0.00 | 0.00 | 66 | 1015.5 |
| 20260905141605 | 78 | 266 | 4.3 | 10.4 | 0.00 | 0.00 | 0.00 | 70 | 1015.6 |
| 20260905140113 | 77 | 227 | 2.6 | 7.0 | 0.00 | 0.00 | 0.00 | 71 | 1016.0 |
| 20260905134606 | 75 | 242 | 3.5 | 7.8 | 0.00 | 0.00 | 0.00 | 74 | 1016.1 |
| 20260905133109 | 75 | 231 | 3.5 | 9.6 | 0.00 | 0.00 | 0.00 | 74 | 1016.5 |
| 20260905131608 | 74 | 229 | 1.7 | 9.6 | 0.00 | 0.00 | 0.00 | 77 | 1016.5 |
| 20260905124600 | 72 | 213 | 2.6 | 7.0 | 0.00 | 0.00 | 0.00 | 80 | 1016.7 |
| 20260905123106 | 71 | 235 | 2.6 | 7.0 | 0.00 | 0.00 | 0.00 | 81 | 1016.8 |
| 20260905121605 | 72 | 254 | 1.7 | 7.8 | 0.00 | 0.00 | 0.00 | 81 | 1017.1 |
| 20260905120112 | 72 | 270 | 0.9 | 6.1 | 0.00 | 0.00 | 0.00 | 80 | 1016.8 |
| 20260905114611 | 72 | 0 | 3.5 | 8.7 | 0.00 | 0.00 | 0.00 | 80 | 1016.7 |
| 20260905113102 | 73 | 201 | 4.3 | 13.9 | 0.00 | 0.00 | 0.00 | 80 | 1016.8 |
| 20260905111653 | 73 | 221 | 5.2 | 18.2 | 0.00 | 0.00 | 0.00 | 84 | 1016.5 |
| 20260905104603 | 71 | 0 | 0.0 | 0.9 | 0.00 | 0.00 | 0.00 | 93 | 1014.4 |
| 20260905103109 | 72 | 0 | 0.0 | 1.7 | 0.00 | 0.00 | 0.00 | 92 | 1013.7 |
| 20260905101602 | 73 | 0 | 0.0 | 2.6 | 0.00 | 0.00 | 0.00 | 90 | 1014.3 |
| 20260905094605 | 74 | 329 | 0.9 | 6.1 | 0.00 | 0.00 | 0.00 | 89 | 1014.8 |
| 20260905093122 | 74 | 0 | 0.0 | 4.3 | 0.00 | 0.00 | 0.00 | 92 | 1014.7 |
| 20260905091602 | 71 | 352 | 0.9 | 4.3 | 0.00 | 0.00 | 0.00 | 97 | 1014.5 |
| 20260905090104 | 71 | 0 | 0.0 | 0.9 | 0.00 | 0.00 | 0.00 | 97 | 1014.3 |
| 20260905084603 | 71 | 0 | 0.0 | 0.9 | 0.00 | 0.00 | 0.00 | 97 | 1014.2 |
| 20260905083102 | 71 | 0 | 0.0 | 0.0 | 0.00 | 0.00 | 0.00 | 96 | 1014.2 |
| 20260905081603 | 71 | 0 | 0.0 | 0.0 | 0.00 | 0.00 | 0.00 | 96 | 1014.0 |
| 20260905080106 | 71 | 0 | 0.0 | 0.0 | 0.00 | 0.00 | 0.00 | 96 | 1013.8 |
| 20260905074611 | 71 | 0 | 0.0 | 0.0 | 0.00 | 0.00 | 0.00 | 96 | 1013.6 |
| 20260905073104 | 71 | 0 | 0.0 | 0.0 | 0.00 | 0.00 | 0.00 | 96 | 1013.6 |
| 20260905071558 | 71 | 0 | 0.0 | 0.0 | 0.00 | 0.00 | 0.00 | 96 | 1013.7 |
| 20260905070106 | 71 | 0 | 0.0 | 0.0 | 0.00 | 0.00 | 0.00 | 96 | 1013.9 |
| 20260905064631 | 71 | 0 | 0.0 | 0.0 | 0.00 | 0.00 | 0.00 | 96 | 1014.2 |
| 20260905063103 | 71 | 0 | 0.0 | 0.0 | 0.00 | 0.00 | 0.00 | 95 | 1014.3 |
| 20260905061604 | 71 | 0 | 0.0 | 0.0 | 0.00 | 0.00 | 0.00 | 95 | 1014.6 |
| 20260905060108 | 72 | 0 | 0.0 | 0.0 | 0.00 | 0.00 | 0.00 | 95 | 1014.7 |
| 20260905054607 | 72 | 0 | 0.0 | 0.0 | 0.00 | 0.00 | 0.00 | 95 | 1014.8 |
| 20260905053111 | 72 | 0 | 0.0 | 0.0 | 0.00 | 0.00 | 0.00 | 95 | 1015.1 |
| 20260905051601 | 72 | 0 | 0.0 | 0.0 | 0.00 | 0.00 | 0.00 | 95 | 1015.1 |
| 20260905050108 | 72 | 0 | 0.0 | 0.0 | 0.00 | 0.00 | 0.00 | 94 | 1015.2 |
| 20260905044611 | 72 | 0 | 0.0 | 0.0 | 0.00 | 0.00 | 0.00 | 94 | 1015.3 |
| 20260905043108 | 73 | 0 | 0.0 | 0.9 | 0.00 | 0.00 | 0.00 | 94 | 1015.3 |
| 20260905041603 | 73 | 0 | 0.0 | 0.0 | 0.00 | 0.00 | 0.00 | 94 | 1015.3 |
| 20260905040105 | 73 | 0 | 0.0 | 0.0 | 0.00 | 0.00 | 0.00 | 93 | 1015.3 |
| 20260905034609 | 73 | 0 | 0.0 | 0.0 | 0.00 | 0.00 | 0.00 | 93 | 1015.4 |
| 20260905033101 | 74 | 0 | 0.0 | 0.9 | 0.00 | 0.00 | 0.00 | 92 | 1015.4 |
| 20260905031605 | 74 | 0 | 0.0 | 0.0 | 0.00 | 0.00 | 0.00 | 93 | 1015.4 |
| 20260905030119 | 74 | 0 | 0.0 | 0.0 | 0.00 | 0.00 | 0.00 | 92 | 1015.2 |
| 20260905024605 | 74 | 0 | 0.0 | 0.0 | 0.00 | 0.00 | 0.00 | 91 | 1015.2 |
| 20260905023101 | 75 | 0 | 0.0 | 0.0 | 0.00 | 0.00 | 0.00 | 91 | 1015.2 |
| 20260905021611 | 76 | 0 | 0.0 | 0.9 | 0.00 | 0.00 | 0.00 | 89 | 1015.3 |
| 20260905020108 | 76 | 0 | 0.0 | 0.0 | 0.00 | 0.00 | 0.00 | 88 | 1015.2 |
| 20260905014603 | 77 | 0 | 0.0 | 0.9 | 0.00 | 0.00 | 0.00 | 88 | 1015.1 |
| 20260905013105 | 77 | 0 | 0.0 | 0.9 | 0.00 | 0.00 | 0.00 | 87 | 1015.2 |
| 20260905011608 | 78 | 187 | 0.0 | 1.7 | 0.00 | 0.00 | 0.00 | 85 | 1015.0 |
| 20260905010103 | 78 | 0 | 0.0 | 0.9 | 0.00 | 0.00 | 0.00 | 85 | 1014.9 |
| 20260905004608 | 79 | 178 | 0.0 | 2.6 | 0.00 | 0.00 | 0.00 | 84 | 1014.7 |
| 20260905003108 | 80 | 0 | 0.0 | 0.0 | 0.00 | 0.00 | 0.00 | 81 | 1014.5 |
| 20260905001612 | 82 | 0 | 0.0 | 0.9 | 0.00 | 0.00 | 0.00 | 78 | 1014.5 |
| 20260905000107 | 83 | 0 | 0.0 | 0.9 | 0.00 | 0.00 | 0.00 | 75 | 1014.3 |